Location: La Fredeussais
(48.1780°N, 1.3980°W)
Time: 19:33:33
(UTC+00:00)

ISS - Visible Passes

Search period start: 28 July 2021 00:00
Search period end: 07 August 2021 00:00
Orbit: 419 x 421 km, 51.6° (Epoch: 28 July)

Date Brightness Start Highest point End Pass type
(mag) Time Alt. Az. Time Alt. Az. Time Alt. Az.
28 Jul -3.6 20:21:24 10° WNW 20:24:48 77° NNE 20:28:10 10° ESE visible
28 Jul -2.3 21:58:32 10° W 22:01:22 25° SW 22:01:36 25° SSW visible
29 Jul -2.8 21:11:00 10° WNW 21:14:09 37° SW 21:15:55 21° SSE visible
30 Jul -3.4 20:23:35 10° WNW 20:26:55 55° SSW 20:30:13 10° SE visible
30 Jul -1.1 22:02:23 10° WSW 22:03:07 11° SW 22:03:15 11° SW visible
31 Jul -1.5 21:13:47 10° W 21:16:00 16° SW 21:17:40 12° S visible
01 Aug -2.0 20:26:01 10° W 20:28:50 24° SW 20:31:37 10° SSE visible
03 Aug -0.9 20:29:54 10° WSW 20:30:30 10° SW 20:31:07 10° SW visible
